Location: Moscow
(55.7500°N, 37.5830°E)
Time: 04:31:57
(UTC+03:00)

Kosmos-337 - Pass Details

Date: 04 July 2022
Orbit: 1467 x 1552 km, 74.0° (Epoch: 13 August)

Event Time Altitude Azimuth Distance (km) Brightness Sun altitude
Rises 01:27:00 0° 331° (NNW) 4,737 ? -10.5°
Reaches altitude 10° 01:29:59 10° 330° (NNW) 3,751 ? -10.5°
Maximum altitude 01:39:08 73° 249° (WSW) 1,608 ? -10.1°
Drops below altitude 10° 01:48:09 10° 167° (SSE) 3,698 ? -9.8°
Enters shadow 01:49:42 - 166° (SSE) 4,214 ? -9.7°
